Regional Weather Roundup
Issued by NWS

Home | Current Version | Previous Version | Text Only | Print | Product List | Glossary On
Versions: 1 2 3 4 5 6 7 8 9 10 11 12 13 14 15 16 17 18 19 20 21 22 23 24 25 26 27 28 29 30 31 32 33 34 35 36 37 38 39 40 41 42 43 44 45 46 47 48 49 50
000
ASUS43 KLSX 201757
RWRMO

WEATHER SUMMARY FOR MISSOURI
NATIONAL WEATHER SERVICE SPRINGFIELD MO
100 PM CDT SUN AUG 20 2017

NOTE: "FAIR" INDICATES FEW OR NO CLOUDS BELOW 12,000 FEET WITH NO
       SIGNIFICANT WEATHER AND/OR OBSTRUCTIONS TO VISIBILITY.
       CURRENT SKY AND/OR WEATHER CONDITIONS ARE NOT AVAILABLE FOR
       CHILLICOTHE AND FARMINGTON.

MOZ001>031-035>038-043-044-053-054-201900-
...NORTHERN AND WESTERN MISSOURI...

CITY           SKY/WX    TMP DP  RH WIND       PRES   REMARKS
KANSAS CTY INT MOSUNNY   84  70  62 SE14      30.00F
6HR MIN TEMP:  69; 6HR MAX TEMP:  84; 6HR PCP: TRACE;

LEE`S SUMMIT   SUNNY     84  70  62 SE12      30.01F
6HR MIN TEMP:  68; 6HR MAX TEMP:  84; 6HR PCP:  0.01;

ST JOSEPH      CLOUDY    80  70  71 NE9G21    30.01R
6HR MIN TEMP:  68; 6HR MAX TEMP:  83; 6HR PCP:  0.02;

CHILLICOTHE      N/A     87  70  56 SW6       29.99R HX  92
6HR MIN TEMP:  69; 6HR MAX TEMP:  87; 6HR PCP:  0.20;


$$
MOZ066>068-077>081-088>096-101>105-201900-
...SOUTHWEST MISSOURI...

CITY           SKY/WX    TMP DP  RH WIND       PRES   REMARKS
SPRINGFIELD    MOSUNNY   86  72  62 E9        30.06F HX  92
6HR MIN TEMP:  75; 6HR MAX TEMP:  89;

JOPLIN         CLOUDY    93  76  57 SW9       30.02F HX 105
6HR MIN TEMP:  80; 6HR MAX TEMP:  93;

BRANSON        PTSUNNY   90  73  58 SW7       30.08F HX  98

$$
MOZ032>034-039>042-045>050-055>058-069>072-201900-
...CENTRAL MISSOURI...

CITY           SKY/WX    TMP DP  RH WIND       PRES   REMARKS
COLUMBIA       NOT AVBL
JEFFERSON CITY SUNNY     83  72  69 SE9       30.02F
6HR MIN TEMP:  70; 6HR MAX TEMP:  83;

ROLLA          CLOUDY    83  69  62 E7        30.07F
6HR MIN TEMP:  72; 6HR MAX TEMP:  84;

SEDALIA        SUNNY     85  73  67 S15       30.04F HX  91
6HR MIN TEMP:  71; 6HR MAX TEMP:  85; 6HR PCP: TRACE;

WARRENSBURG    SUNNY     82  70  65 SE9       30.02S

$$
MOZ051-052-059>065-201900-
...EAST CENTRAL MISSOURI...

CITY           SKY/WX    TMP DP  RH WIND       PRES   REMARKS
ST LOUIS INTL  CLOUDY    86  66  51 VRB5      30.05F
6HR MIN TEMP:  75; 6HR MAX TEMP:  86;


$$
MOZ072>076-082>087-097>100-106>115-201900-
...SOUTH CENTRAL AND SOUTHEAST MISSOURI...

CITY           SKY/WX    TMP DP  RH WIND       PRES   REMARKS
CAPE GIRARDEAU MOSUNNY   91  74  57 S7        30.03F HX 100
6HR MIN TEMP:  68; 6HR MAX TEMP:  91;

FARMINGTON     RAIN      82  73  74 N10       30.05F
POPLAR BLUFF   MOSUNNY   90  79  70 S8        30.02F HX 106
6HR MIN TEMP:  70; 6HR MAX TEMP:  91;

WEST PLAINS    CLOUDY    76  69  79 N7        30.10F
6HR MIN TEMP:  73; 6HR MAX TEMP:  84;


$$



USA.gov is the U.S. government's official web portal to all federal, state and local government web resources and services.